DECAYED
Showing default

BANE, 58465 (Decayed)

Orbit data source: Space-Track

BANE, 58465 was a payload satellite owned by York Space Sys (US) in LEO that was launched on Fri, 01 Dec 2023 UTC via an FALCON 9 launch vehicle from the Air Force Western Test Range (AFWTR). Payload-class satellites include a variety of spacecraft equipped with specific instruments for various scientific and technological missions. These include communications satellites like Starlink; space stations such as the ISS; scientific satellites like the Hubble; Earth observation satellites from companies like Planet Labs, Umbra, and HawkEye 360; GPS; miniature CubeSats for education and research; and military/defense satellites.

Not visible in the next 10 days
Identifier
58465, 2023-185D
Orbit
Decayed
Country
Flag of USUS
Related business
Manufacturer
York Space Sys
Mission
Decayed Commercial Technology
Bus & Motor
S-CLASS, Unknown motor
Mass
~150 kg wet, ~150 kg dry
Launch date (UTC)
2023-12-01 (3 years ago)
Launch vehicle
FALCON 9
Launch site
Air Force Western Test Range (AFWTR)
Object type
Payload
Rocket body
Debris
Shape & HBR
Box + 4 Pan, 1.0 m
Radar Cross Section
1.244 m², Large (>1 m²)

Expand to show TLE details & history
Last TLE update: 3 months ago

TLE from 3 months ago
0 BANE
1 58465U 23185D   26165.11067950  .14997138  25321-5  30011-3 0  9994
2 58465  97.3104 254.5514 0013007 263.1406  96.8417 16.46170839142369
Epoch: 2026-06-14T02:39Z
TLE epoch observation values (Epoch: 2026-06-14T02:39:22.708Z)
Latitude
-0.00007°
Longitude
-47.70933°
Altitude
153.723 km
Speed
7.813 km/s
True Right ascension
16h 58m 12s
True Declination
0° 00' 00"
Sunlit
Object was in full shadow at epoch
Visualization orbit readout
Latitude
Unknown
Longitude
Unknown
Altitude
Unknown
Speed
Unknown
Apparent Right ascension
Unknown
Apparent Declination
Unknown
Sunlit
N/A
Visualization observer readout
Local Sidereal Time
18:03:37
Azimuth
Unknown
Elevation
Unknown
Doppler factor
Unknown
Orbital elements
Apogee altitude
154.72 km
Perigee altitude
137.748 km
Semi-major axis
6,524.371 km
Eccentricity
0.0013
Inclination
97.3104°
RAAN
254.5514°
Arg. of periapsis
263.1406°
True anomaly
96.98966°
Mean anomaly
96.8417°
Eccentric anomaly
96.91568°
Mean motion
4.11846 °/min
Orbital period
87.41 mins
BSTAR
0.00030011
Loading maneuver chart data...
Computing Atmospheric mass density...
Loading historical data...
Loading historical data...
Loading historical data...
Loading historical data...
Loading historical data...
Loading historical data...
Loading historical data...

Documentation

Showing up to 5 results
|